{"data":{"norad_id":55631,"intl_designator":"2023-021D","name":"STARLINK-5558","alt_names":[],"object_type":"PAYLOAD","status":"ACTIVE","operator":null,"country":"US","launch_date":"2023-02-17","launch_site_code":"AFWTR","launch_vehicle":null,"mission":null,"orbit_class":"UNKNOWN","rcs_meters":null,"size_class":null,"mass_kg":null,"dimensions":null,"purposes":["comms"],"wikipedia_slug":null,"has_3d_model":false,"image_url":null,"decayed_at":null,"tle_current":{"epoch":"2026-09-20T22:00:03.000096Z","epoch_age_seconds":67147,"freshness":"FRESH","line1":"1 55631U 23021D   26263.91670139  .00081815  00000+0  55837-2 0  9995","line2":"2 55631  70.0016  72.0577 0002476 294.2405 132.2357 15.05734616  5768","mean_motion":15.05734616,"eccentricity":0.0002476,"inclination_deg":70.0016,"raan_deg":72.0577,"arg_perigee_deg":294.2405,"mean_anomaly_deg":132.2357,"bstar":0.0055837,"rev_number":576,"period_min":95.63438236051,"perigee_km":547.53639358181,"apogee_km":550.96683642396,"semimajor_km":6927.3886150029,"source":"CELESTRAK","updated_at":"2026-09-21T09:00:33.279571Z"}}}